Location: Madden
(51.3728°N, 114.3297°W)
Time: 06:20:35
(UTC+00:00)

PCSat - Pass Details

Date: 12 December 2023
Orbit: 784 x 791 km, 67.0° (Epoch: 02 March)

Event Time Altitude Azimuth Distance (km) Brightness Sun altitude
Exits shadow 12:17:03 22° 8° (N) 1,676 11.3 -29.2°
Drops below altitude 10° 12:19:26 10° 28° (NNE) 2,363 12.3 -28.8°
Sets 12:22:08 0° 38° (NE) 3,296 13.3 -28.4°
